Location: Erlenbrunn
(49.1717°N, 7.6142°E)
Time: 12:30:28
(UTC+00:00)

Cosmos 2278 Rocket - Pass Details

Date: 25 November 2020
Orbit: 839 x 847 km, 71.0° (Epoch: 25 January)

Event Time Altitude Azimuth Distance (km) Brightness Sun altitude
Rises 16:56:49 0° 328° (NNW) 3,415 5.6 -12.5°
Reaches altitude 10° 16:59:20 10° 323° (NW) 2,477 4.9 -12.9°
Maximum altitude 17:04:47 49° 250° (WSW) 1,087 3.3 -13.8°
Drops below altitude 10° 17:10:12 10° 177° (S) 2,464 4.8 -14.6°
Sets 17:12:42 0° 172° (S) 3,396 5.4 -15.0°
